Wind_Speed
5 5 4 4 5 4 4 4 3 3 3 2 2 2 2 3 3 3 3 3 3 3 3 4 3 3 3 4 4 3 3 2 2 2 2 1 1 2 3 3 4 4 4
4 4 4 4 3 3 3 3 3 2 2 2 2 2 2 1 1 2 2 2 2 2 3 3 3 3 3 4 4 4 4 3 3 3 2 3 2 3 3 4 4 5 5
4 4 3 3 2 2 2 2 2 2 1 1 1 1 1 1 1 1 2 2 2 3 3 3 3 4 4 4 5 5 5 5 4 4 4 4 4 4 5 5 5 6 6
3 2 2 2 1 1 2 2 1 0 1 1 1 2 2 3 2 2 3 3 4 4 5 5 5 5 6 6 6 6 6 6 6 6 5 6 6 6 6 7 7 7 8
2 1 1 1 1 1 2 2 2 2 2 2 2 3 4 4 3 4 4 5 5 6 6 6 7 7 7 7 7 8 8 8 8 8 8 7 8 8 8 9 9 9 9
2 1 1 1 1 2 2 3 3 3 3 4 4 5 5 5 6 6 6 6 6 7 7 8 8 9 9 9 9 9 9 10 10 10 10 10 10 10 10 11 11 11 11
2 3 3 2 2 2 3 4 4 5 5 5 6 6 7 7 7 8 8 8 8 9 9 10 10 10 10 11 11 11 11 11 11 12 13 13 13 13 12 13 13 13 14
3 4 4 4 4 4 4 5 6 6 7 6 7 8 8 9 9 9 10 10 11 11 11 12 12 12 12 12 13 13 13 13 13 13 14 14 14 15 14 14 14 14 15
3 5 5 6 5 6 6 7 8 8 8 8 9 9 10 11 11 12 12 12 12 13 13 13 13 14 14 14 15 15 15 16 16 16 16 16 16 16 16 16 16 17 18
4 5 6 7 7 7 8 9 9 9 10 10 10 11 12 12 13 13 14 14 14 14 15 15 15 15 15 16 16 16 17 17 17 17 18 19 19 19 19 19 19 19 19
5 5 6 7 9 9 10 10 11 11 11 12 12 13 13 14 14 15 15 16 16 16 16 16 17 17 17 17 18 18 18 18 19 19 19 19 19 20 20 21 21 21 21
6 6 7 7 9 10 11 11 12 12 13 13 13 14 14 15 15 16 16 17 18 18 18 18 18 18 18 19 19 20 20 20 20 19 20 19 20 21 21 21 22 22 22
7 8 8 8 10 11 11 11 12 13 13 13 14 15 15 15 16 16 17 18 18 19 19 19 19 19 19 19 20 20 21 21 21 20 21 22 22 23 23 23 23 24 25
8 8 8 9 10 11 11 12 12 12 13 14 14 15 16 16 16 17 17 17 18 19 20 21 20 20 20 20 21 21 22 22 22 23 24 24 24 25 25 25 25 25 25
10 10 9 9 10 11 12 12 13 13 13 13 14 15 15 15 15 16 16 16 17 18 19 20 21 21 21 22 22 22 23 24 24 24 24 24 24 25 25 26 27 27 28
11 11 11 11 11 11 11 12 13 13 13 13 14 14 14 14 15 15 15 15 16 17 19 20 21 22 22 23 24 24 24 24 25 25 26 26 27 27 27 28 29 30 31
11 11 11 11 12 12 13 13 13 14 14 14 14 14 14 15 15 16 16 16 17 18 18 20 22 23 23 24 24 24 25 25 26 26 27 28 28 29 30 31 31 32 32
12 12 12 13 13 13 13 13 13 13 14 14 14 14 15 16 16 17 17 18 19 19 20 21 22 23 23 24 25 25 26 26 27 27 27 28 30 31 31 32 32 33 34
14 14 14 14 14 14 14 13 14 15 14 14 15 15 16 17 18 19 19 20 21 21 21 22 22 23 24 24 24 25 26 27 28 29 30 30 31 32 33 33 33 34 35
16 16 16 15 15 15 15 14 15 15 15 15 16 17 17 18 19 20 21 22 23 23 23 24 24 24 25 26 26 27 28 28 29 30 31 31 32 32 33 33 33 33 34
18 17 17 17 16 16 16 16 16 16 16 17 18 18 19 19 20 21 23 24 25 25 25 26 26 26 27 27 27 29 29 29 30 30 31 32 32 32 32 32 33 33 34
18 18 18 17 16 16 16 16 16 17 17 18 19 19 20 20 21 22 23 24 25 25 25 26 27 28 28 29 30 30 31 31 31 31 32 32 32 32 33 33 32 33 35
16 16 17 17 16 16 16 16 17 17 18 19 20 21 21 21 22 23 23 24 25 25 26 27 28 29 29 30 30 31 31 31 31 31 31 31 32 32 32 33 33 34 35
16 16 16 16 16 16 16 16 17 18 19 20 21 21 22 23 24 24 25 25 26 26 27 28 28 29 29 29 30 30 31 31 30 31 31 32 32 33 34 34 34 35 36
15 15 15 15 16 16 16 16 17 18 19 20 20 21 22 23 24 24 25 26 27 27 28 29 29 29 29 30 30 30 30 30 31 32 33 33 33 34 35 36 36 36 36
15 14 15 15 15 15 15 16 17 18 18 19 20 21 22 23 24 24 25 26 27 27 28 28 28 29 29 30 30 30 31 31 33 33 34 35 35 35 36 37 37 37 37
Wind_Direction
105 105 103 100 97 97 99 99 102 102 98 91 82 73 72 70 76 67 62 52 47 44 40 38 37 34 30 24 23 20 11 359 354 350 342 328 293 266 261 259 261 265 270
110 113 112 108 102 97 101 104 98 107 102 83 70 66 77 57 58 49 49 39 29 23 17 15 12 1 356 356 354 352 349 342 331 318 313 307 295 281 276 274 271 271 274
120 121 118 116 111 114 123 112 98 97 98 81 52 35 18 355 356 359 356 358 351 347 346 341 335 333 329 328 329 329 328 326 320 311 303 297 290 284 280 278 277 278 278
133 138 146 136 141 152 159 154 156 326 340 335 343 337 336 331 331 329 323 321 323 327 324 324 320 319 318 313 311 316 314 311 308 305 299 290 285 281 278 278 280 280 280
144 151 171 174 172 193 200 191 208 249 280 298 308 311 310 313 310 309 311 307 308 313 317 318 317 314 313 309 303 300 299 296 293 291 289 283 279 278 277 276 278 280 280
194 246 267 214 221 233 229 225 239 256 267 281 292 297 294 295 295 296 297 297 301 304 307 308 308 307 307 304 301 297 295 289 286 285 283 281 278 277 276 276 275 275 275
239 257 260 243 244 250 247 249 256 263 267 277 287 291 290 289 289 291 293 294 295 297 299 302 303 304 302 300 298 295 296 294 288 285 284 283 283 280 279 279 278 277 275
267 265 257 252 252 258 258 261 268 272 273 277 283 288 290 291 289 287 289 291 292 293 293 296 297 296 298 296 297 294 293 289 287 285 282 281 282 282 280 280 280 279 278
274 263 263 261 262 263 265 268 272 273 276 278 281 284 285 287 289 288 287 289 290 289 289 292 293 291 291 295 294 294 292 290 286 283 284 281 281 281 279 280 280 279 278
291 281 267 266 265 266 267 270 272 273 276 279 281 283 284 286 287 286 287 287 287 287 289 290 292 292 291 291 293 294 292 288 286 285 284 282 279 278 278 279 278 279 277
304 294 281 273 268 265 267 269 268 270 273 277 279 281 283 286 287 287 287 288 288 287 288 289 291 291 291 292 291 292 291 288 287 283 283 282 280 280 279 279 278 277 277
300 299 292 282 274 267 265 266 269 272 273 276 277 279 282 286 287 287 287 287 288 288 289 289 290 291 291 291 290 289 289 291 288 285 283 279 279 280 281 281 279 279 279
299 296 290 286 278 273 273 273 276 274 274 276 277 279 281 285 285 286 287 287 287 287 288 290 291 291 292 293 292 289 289 290 288 286 284 282 282 280 281 281 281 280 280
306 302 297 294 285 279 278 277 280 279 280 281 281 282 282 285 285 287 289 288 288 288 289 290 290 292 293 293 292 291 289 289 287 285 284 283 282 281 282 283 282 282 282
309 305 303 299 291 287 281 278 281 281 283 285 286 284 284 287 287 288 291 291 290 289 289 289 290 291 292 293 292 290 288 288 287 286 284 283 283 282 282 283 281 282 281
310 303 299 300 296 292 288 282 283 285 283 282 288 291 288 289 292 294 293 293 294 292 288 288 289 291 291 293 294 291 290 288 286 284 284 283 282 282 282 281 282 282 282
309 306 304 301 297 293 290 285 285 286 286 283 285 287 287 287 289 291 292 294 295 293 291 290 289 292 292 293 292 292 292 292 290 287 286 285 285 284 283 283 283 282 282
302 302 302 301 300 297 291 288 289 289 289 286 284 286 289 290 289 290 293 295 296 295 293 293 293 294 294 295 294 293 293 292 291 290 289 287 286 286 285 284 284 283 283
296 296 297 298 298 298 294 289 289 289 290 291 290 289 290 290 289 290 292 294 295 296 296 295 296 296 296 296 296 295 294 292 290 290 289 288 288 288 286 286 286 285 285
291 289 291 294 295 293 290 288 289 289 290 293 293 293 293 294 293 292 293 294 295 295 295 296 295 295 296 295 295 295 295 293 292 292 291 292 293 292 289 289 289 289 288
288 287 289 292 290 287 285 284 286 288 288 290 292 294 296 296 295 293 293 294 294 295 296 296 295 294 295 296 295 295 295 295 295 295 295 294 294 293 293 291 292 291 292
288 288 288 288 288 287 287 284 284 285 288 291 294 296 296 296 296 295 295 295 295 297 298 296 295 294 296 297 295 294 295 296 296 295 295 295 295 294 294 293 293 294 293
289 289 289 287 287 290 289 284 284 286 287 289 292 294 295 294 296 296 296 297 297 296 296 296 297 297 298 299 298 297 295 296 297 296 296 296 296 296 295 294 294 293 292
287 288 290 290 288 288 288 285 285 288 287 289 291 293 294 294 296 297 298 297 297 296 296 296 298 298 299 300 300 299 297 297 297 298 298 297 296 296 295 296 295 294 293
290 287 287 290 291 288 289 287 285 289 291 293 294 295 296 297 298 298 298 297 297 297 298 298 299 299 299 300 300 299 299 299 300 300 299 298 297 297 297 297 297 296 296
292 289 289 289 292 292 290 291 290 292 294 296 299 300 300 300 300 300 299 300 299 300 301 301 301 301 300 300 300 300 300 300 300 300 299 299 298 298 298 298 299 299 299
Height
5904 5904 5904 5905 5905 5906 5906 5906 5907 5907 5907 5907 5907 5907 5907 5907 5907 5906 5907 5907 5907 5906 5906 5906 5906 5905 5905 5905 5904 5904 5903 5903 5903 5902 5902 5902 5902 5902 5902 5902 5902 5902 5902
5904 5905 5905 5906 5906 5906 5907 5907 5907 5907 5908 5908 5908 5908 5908 5908 5907 5907 5907 5907 5907 5907 5907 5906 5906 5906 5905 5905 5904 5903 5903 5903 5902 5902 5902 5902 5901 5901 5901 5901 5901 5901 5901
5905 5905 5906 5906 5906 5907 5907 5907 5908 5908 5908 5908 5908 5908 5908 5908 5908 5908 5907 5907 5907 5907 5907 5906 5906 5906 5905 5905 5904 5903 5903 5902 5902 5902 5901 5901 5901 5901 5900 5900 5900 5900 5900
5905 5905 5906 5906 5906 5907 5907 5907 5908 5908 5908 5909 5908 5908 5908 5908 5908 5908 5907 5907 5907 5907 5907 5906 5906 5905 5905 5904 5903 5902 5902 5902 5901 5901 5900 5900 5900 5899 5899 5899 5899 5899 5898
5905 5905 5906 5906 5906 5906 5907 5907 5908 5908 5908 5908 5908 5908 5908 5908 5908 5907 5907 5907 5907 5906 5906 5906 5905 5904 5904 5903 5902 5902 5901 5900 5900 5899 5899 5898 5898 5898 5897 5897 5897 5897 5896
5905 5905 5905 5905 5906 5906 5906 5907 5907 5907 5908 5908 5908 5908 5908 5907 5907 5907 5906 5906 5906 5905 5905 5904 5904 5903 5902 5902 5901 5900 5899 5898 5898 5897 5897 5896 5895 5895 5895 5895 5894 5894 5894
5905 5905 5905 5905 5905 5906 5906 5906 5906 5907 5907 5907 5907 5907 5907 5906 5906 5905 5905 5905 5904 5904 5903 5903 5902 5901 5901 5900 5899 5898 5897 5896 5895 5895 5894 5894 5893 5893 5892 5891 5891 5891 5890
5904 5905 5905 5905 5905 5905 5905 5905 5905 5905 5905 5906 5906 5905 5905 5905 5904 5904 5903 5903 5903 5902 5901 5901 5900 5899 5898 5897 5896 5895 5894 5893 5892 5892 5891 5891 5890 5890 5889 5888 5888 5887 5887
5903 5903 5903 5903 5904 5904 5904 5904 5904 5904 5904 5904 5904 5904 5903 5903 5902 5902 5901 5901 5900 5900 5899 5898 5897 5896 5895 5894 5893 5892 5891 5890 5889 5889 5888 5887 5887 5886 5885 5884 5884 5883 5882
5902 5902 5902 5902 5902 5902 5902 5902 5902 5902 5902 5902 5901 5901 5901 5901 5900 5899 5899 5898 5897 5897 5896 5895 5894 5893 5892 5891 5890 5889 5887 5886 5885 5885 5884 5883 5882 5881 5881 5880 5879 5878 5877
5901 5900 5900 5900 5900 5900 5900 5900 5900 5900 5900 5900 5899 5899 5898 5898 5897 5896 5896 5895 5894 5893 5893 5892 5891 5890 5888 5887 5886 5885 5884 5882 5881 5880 5879 5878 5877 5876 5876 5875 5874 5873 5872
5900 5899 5899 5898 5898 5898 5897 5897 5898 5898 5897 5897 5896 5896 5895 5895 5894 5893 5892 5891 5890 5890 5889 5888 5887 5886 5884 5883 5882 5881 5879 5878 5877 5875 5874 5873 5873 5872 5870 5870 5869 5868 5867
5898 5898 5897 5896 5896 5895 5895 5895 5895 5895 5894 5894 5893 5893 5892 5891 5890 5889 5888 5887 5886 5885 5884 5883 5882 5881 5880 5878 5877 5876 5874 5873 5872 5870 5869 5868 5867 5866 5865 5864 5863 5862 5861
5897 5896 5895 5894 5893 5893 5892 5892 5892 5891 5891 5890 5890 5889 5888 5888 5886 5885 5884 5883 5882 5881 5880 5879 5877 5876 5875 5873 5872 5871 5869 5868 5866 5865 5864 5862 5861 5860 5859 5858 5857 5856 5854
5894 5894 5893 5892 5891 5891 5890 5890 5889 5888 5887 5887 5886 5886 5885 5884 5883 5882 5881 5880 5879 5877 5875 5874 5873 5871 5870 5868 5867 5865 5864 5862 5860 5859 5857 5856 5855 5854 5853 5851 5850 5848 5847
5892 5891 5891 5890 5889 5888 5887 5887 5886 5885 5884 5884 5883 5882 5881 5880 5880 5878 5877 5876 5875 5873 5872 5870 5868 5867 5865 5863 5861 5860 5858 5856 5855 5853 5851 5849 5848 5847 5845 5844 5842 5840 5839
5891 5889 5888 5887 5886 5885 5885 5884 5883 5882 5881 5880 5880 5879 5878 5877 5876 5875 5874 5872 5871 5869 5868 5866 5864 5862 5860 5858 5856 5854 5852 5850 5848 5846 5844 5842 5840 5839 5837 5835 5834 5832 5830
5888 5887 5886 5885 5884 5883 5882 5881 5880 5879 5878 5877 5876 5875 5874 5873 5872 5871 5870 5868 5866 5865 5863 5861 5859 5857 5854 5852 5850 5848 5846 5843 5841 5839 5837 5835 5833 5831 5829 5827 5825 5823 5821
5886 5885 5883 5882 5881 5880 5879 5877 5876 5876 5875 5874 5873 5872 5870 5869 5868 5867 5865 5863 5861 5859 5858 5856 5854 5851 5849 5846 5844 5842 5839 5837 5834 5832 5829 5827 5824 5822 5820 5817 5815 5813 5811
5882 5881 5880 5878 5877 5876 5875 5874 5873 5872 5871 5870 5869 5868 5866 5865 5863 5862 5860 5858 5856 5854 5852 5850 5848 5845 5843 5840 5838 5835 5832 5830 5827 5824 5821 5819 5816 5813 5811 5808 5806 5803 5801
5878 5877 5875 5874 5874 5873 5871 5870 5870 5869 5868 5866 5865 5863 5862 5860 5858 5857 5855 5852 5850 5848 5846 5844 5841 5839 5836 5833 5831 5828 5825 5822 5819 5816 5813 5811 5808 5805 5802 5799 5796 5794 5791
5873 5872 5871 5870 5869 5869 5867 5866 5866 5865 5863 5862 5861 5859 5857 5855 5853 5851 5849 5847 5845 5842 5840 5837 5834 5832 5829 5826 5823 5820 5817 5815 5812 5809 5805 5802 5799 5796 5793 5790 5787 5784 5781
5869 5868 5867 5866 5865 5864 5863 5862 5861 5860 5859 5857 5856 5854 5852 5850 5848 5846 5844 5841 5839 5836 5834 5831 5828 5825 5822 5819 5816 5813 5810 5807 5804 5801 5797 5794 5791 5788 5784 5781 5778 5775 5772
5865 5864 5863 5862 5861 5860 5858 5857 5856 5855 5854 5852 5850 5849 5847 5845 5842 5840 5838 5835 5832 5829 5827 5824 5822 5818 5815 5811 5808 5805 5802 5799 5796 5792 5789 5786 5782 5779 5775 5772 5768 5765 5762
5861 5860 5859 5858 5857 5856 5854 5853 5852 5851 5849 5847 5845 5844 5841 5839 5837 5834 5831 5829 5826 5823 5820 5817 5814 5811 5807 5804 5801 5798 5794 5791 5788 5784 5781 5777 5773 5769 5766 5762 5759 5755 5751
5857 5856 5855 5854 5853 5852 5850 5849 5848 5846 5845 5843 5841 5838 5835 5833 5831 5828 5825 5822 5819 5816 5813 5810 5807 5803 5800 5797 5793 5790 5787 5783 5779 5776 5772 5768 5764 5760 5756 5752 5748 5745 5741